Year,Month,Day,Hour,Minute,Value (Times are PST for temperature in C)
2007,07,11,00,00,27.10
2007,07,11,00,01,27.00
2007,07,11,00,02,26.90
2007,07,11,00,03,26.90
2007,07,11,00,04,26.90
2007,07,11,00,05,26.90
2007,07,11,00,06,26.90
2007,07,11,00,07,26.80
2007,07,11,00,08,26.80
2007,07,11,00,09,26.80
2007,07,11,00,10,26.80
2007,07,11,00,11,26.80
2007,07,11,00,12,26.70
2007,07,11,00,13,26.70
2007,07,11,01,02,25.40
2007,07,11,01,03,25.40
2007,07,11,01,04,25.30
2007,07,11,01,05,25.20
2007,07,11,01,06,25.20
2007,07,11,01,07,25.10
2007,07,11,01,08,25.10
2007,07,11,01,09,25.00
2007,07,11,01,10,24.90
2007,07,11,01,11,24.90
2007,07,11,01,12,24.80
2007,07,11,01,13,24.70
2007,07,11,01,14,24.60
2007,07,11,01,15,24.50
2007,07,11,01,16,24.40
2007,07,11,01,17,24.40
2007,07,11,01,18,24.30
2007,07,11,01,19,24.20
2007,07,11,01,20,24.10
2007,07,11,01,21,24.10
2007,07,11,01,22,23.90
2007,07,11,01,23,23.90
2007,07,11,01,24,23.80
2007,07,11,01,25,23.70
2007,07,11,01,26,23.70
2007,07,11,01,27,23.60
2007,07,11,01,28,23.50
2007,07,11,01,29,23.40
2007,07,11,01,30,23.40
2007,07,11,01,31,23.30
2007,07,11,01,32,23.30
2007,07,11,01,33,23.30
2007,07,11,01,34,23.20
2007,07,11,01,35,23.20
2007,07,11,01,36,23.10
2007,07,11,01,37,23.10
2007,07,11,01,38,23.00
2007,07,11,01,39,22.90
2007,07,11,01,40,22.90
2007,07,11,01,41,22.90
2007,07,11,01,42,22.90
2007,07,11,01,43,22.80
2007,07,11,01,44,22.80
2007,07,11,01,45,22.70
2007,07,11,01,46,22.70
2007,07,11,01,47,22.70
2007,07,11,01,48,22.60
2007,07,11,01,49,22.60
2007,07,11,01,50,22.60
2007,07,11,01,51,22.60
2007,07,11,01,52,22.50
2007,07,11,01,53,22.50
2007,07,11,01,54,22.50
2007,07,11,01,55,22.40
2007,07,11,01,56,22.40
2007,07,11,01,57,22.40
2007,07,11,01,58,22.30
2007,07,11,01,59,22.30
2007,07,11,02,00,22.20
2007,07,11,02,01,22.20
2007,07,11,02,02,22.20
2007,07,11,02,03,22.10
2007,07,11,02,04,22.10
2007,07,11,02,05,22.10
2007,07,11,02,06,22.00
2007,07,11,02,07,22.00
2007,07,11,02,08,22.00
2007,07,11,02,09,21.90
2007,07,11,02,10,21.90
2007,07,11,02,11,21.90
2007,07,11,02,12,21.90
2007,07,11,02,13,21.80
2007,07,11,02,14,21.80
2007,07,11,02,15,21.80
2007,07,11,02,16,21.70
2007,07,11,02,17,21.70
2007,07,11,02,18,21.70
2007,07,11,02,19,21.70
2007,07,11,02,20,21.60
2007,07,11,02,21,21.60
2007,07,11,02,22,21.60
2007,07,11,02,23,21.60
2007,07,11,02,24,21.60
2007,07,11,02,25,21.60
2007,07,11,02,26,21.60
2007,07,11,02,27,21.50
2007,07,11,02,28,21.40
2007,07,11,02,29,21.40
2007,07,11,02,30,21.40
2007,07,11,02,31,21.30
2007,07,11,02,32,21.30
2007,07,11,02,33,21.30
2007,07,11,02,34,21.30
2007,07,11,02,35,21.30
2007,07,11,02,36,21.30
2007,07,11,02,37,21.30
2007,07,11,02,38,21.20
2007,07,11,02,39,21.20
2007,07,11,02,40,21.10
2007,07,11,02,41,21.10
2007,07,11,02,42,21.10
2007,07,11,02,43,21.10
2007,07,11,02,44,21.10
2007,07,11,02,45,21.00
2007,07,11,02,46,21.00
2007,07,11,02,47,21.00
2007,07,11,02,48,21.00
2007,07,11,02,49,21.00
2007,07,11,02,50,21.00
2007,07,11,02,51,21.00
2007,07,11,02,52,21.00
2007,07,11,02,53,20.90
2007,07,11,02,54,20.90
2007,07,11,02,55,20.90
2007,07,11,02,56,20.90
2007,07,11,02,57,20.90
2007,07,11,02,58,20.80
2007,07,11,02,59,20.80
2007,07,11,03,00,20.80
2007,07,11,03,01,20.80
2007,07,11,03,02,20.70
2007,07,11,03,03,20.70
2007,07,11,03,04,20.70
2007,07,11,03,05,20.70
2007,07,11,03,06,20.70
2007,07,11,03,07,20.70
2007,07,11,03,08,20.70
2007,07,11,03,09,20.70
2007,07,11,03,10,20.70
2007,07,11,03,11,20.70
2007,07,11,03,12,20.70
2007,07,11,03,13,20.70
2007,07,11,03,14,20.70
2007,07,11,03,15,20.70
2007,07,11,03,16,20.70
2007,07,11,03,17,20.70
2007,07,11,03,18,20.70
2007,07,11,03,19,20.70
2007,07,11,03,20,20.70
2007,07,11,03,21,20.70
2007,07,11,03,22,20.70
2007,07,11,03,23,20.70
2007,07,11,03,24,20.70
2007,07,11,03,25,20.80
2007,07,11,03,26,20.80
2007,07,11,03,27,20.80
2007,07,11,03,28,20.80
2007,07,11,03,29,20.80
2007,07,11,03,30,20.80
2007,07,11,03,31,20.80
2007,07,11,03,32,20.80
2007,07,11,03,33,20.80
2007,07,11,03,34,20.80
2007,07,11,03,35,20.80
2007,07,11,03,36,20.70
2007,07,11,03,37,20.70
2007,07,11,03,38,20.70
2007,07,11,03,39,20.70
2007,07,11,03,40,20.70
2007,07,11,03,41,20.70
2007,07,11,03,42,20.70
2007,07,11,03,43,20.70
2007,07,11,03,44,20.70
2007,07,11,03,45,20.70
2007,07,11,03,46,20.70
2007,07,11,03,47,20.70
2007,07,11,03,48,20.70
2007,07,11,03,49,20.70
2007,07,11,03,50,20.70
2007,07,11,03,51,20.70
2007,07,11,03,52,20.70
2007,07,11,03,53,20.70
2007,07,11,03,54,20.70
2007,07,11,03,55,20.70
2007,07,11,03,56,20.70
2007,07,11,03,57,20.70
2007,07,11,03,58,20.70
2007,07,11,03,59,20.70
2007,07,11,04,00,20.70
2007,07,11,04,01,20.70
2007,07,11,04,02,20.70
2007,07,11,04,03,20.70
2007,07,11,04,04,20.70
2007,07,11,04,05,20.70
2007,07,11,04,06,20.70
2007,07,11,04,07,20.70
2007,07,11,04,08,20.70
2007,07,11,04,09,20.70
2007,07,11,04,10,20.70
2007,07,11,04,11,20.70
2007,07,11,04,12,20.70
2007,07,11,04,13,20.60
2007,07,11,04,14,20.60
2007,07,11,04,15,20.60
2007,07,11,04,16,20.60
2007,07,11,04,17,20.60
2007,07,11,04,18,20.60
2007,07,11,04,19,20.60
2007,07,11,04,20,20.60
2007,07,11,04,21,20.60
2007,07,11,04,22,20.60
2007,07,11,04,23,20.50
2007,07,11,04,24,20.50
2007,07,11,04,25,20.50
2007,07,11,04,26,20.50
2007,07,11,04,27,20.50
2007,07,11,04,28,20.40
2007,07,11,04,29,20.40
2007,07,11,04,30,20.40
2007,07,11,04,31,20.40
2007,07,11,04,32,20.40
2007,07,11,04,33,20.30
2007,07,11,04,34,20.30
2007,07,11,04,35,20.30
2007,07,11,04,36,20.30
2007,07,11,04,37,20.30
2007,07,11,04,38,20.20
2007,07,11,04,39,20.20
2007,07,11,04,40,20.20
2007,07,11,04,41,20.20
2007,07,11,04,42,20.20
2007,07,11,04,43,20.20
2007,07,11,04,44,20.20
2007,07,11,04,45,20.20
2007,07,11,04,46,20.20
2007,07,11,04,47,20.20
2007,07,11,04,48,20.20
2007,07,11,04,49,20.20
2007,07,11,04,50,20.20
2007,07,11,04,51,20.10
2007,07,11,04,52,20.10
2007,07,11,04,53,20.10
2007,07,11,04,54,20.10
2007,07,11,04,55,20.10
2007,07,11,04,56,20.10
2007,07,11,04,57,20.10
2007,07,11,04,58,20.10
2007,07,11,04,59,20.10
2007,07,11,05,00,20.10
2007,07,11,05,01,20.10
2007,07,11,05,02,20.10
2007,07,11,05,03,20.10
2007,07,11,05,04,20.10
2007,07,11,05,05,20.10
2007,07,11,05,06,20.10
2007,07,11,05,07,20.10
2007,07,11,05,08,20.10
2007,07,11,05,09,20.20
2007,07,11,05,10,20.20
2007,07,11,05,11,20.20
2007,07,11,05,12,20.20
2007,07,11,05,13,20.20
2007,07,11,05,14,20.20
2007,07,11,05,15,20.20
2007,07,11,05,16,20.20
2007,07,11,05,17,20.20
2007,07,11,05,18,20.20
2007,07,11,05,19,20.20
2007,07,11,05,20,20.20
2007,07,11,05,21,20.20
2007,07,11,05,22,20.20
2007,07,11,05,23,20.20
2007,07,11,05,24,20.20
2007,07,11,05,25,20.20
2007,07,11,05,26,20.20
2007,07,11,05,27,20.20
2007,07,11,05,28,20.20
2007,07,11,05,29,20.20
2007,07,11,05,30,20.20
2007,07,11,05,31,20.20
2007,07,11,05,32,20.20
2007,07,11,05,33,20.20
2007,07,11,05,34,20.20
2007,07,11,05,35,20.20
2007,07,11,05,36,20.20
2007,07,11,05,37,20.20
2007,07,11,05,38,20.20
2007,07,11,05,39,20.20
2007,07,11,05,40,20.20
2007,07,11,05,41,20.20
2007,07,11,05,42,20.20
2007,07,11,05,43,20.20
2007,07,11,05,44,20.20
2007,07,11,05,45,20.20
2007,07,11,05,46,20.20
2007,07,11,05,47,20.20
2007,07,11,05,48,20.20
2007,07,11,05,49,20.20
2007,07,11,05,50,20.20
2007,07,11,05,51,20.20
2007,07,11,05,52,20.20
2007,07,11,05,53,20.20
2007,07,11,05,54,20.20
2007,07,11,05,55,20.20
2007,07,11,05,56,20.20
2007,07,11,05,57,20.20
2007,07,11,05,58,20.20
2007,07,11,05,59,20.20
2007,07,11,06,00,20.20
2007,07,11,06,01,20.20
2007,07,11,06,02,20.20
2007,07,11,06,03,20.20
2007,07,11,06,04,20.20
2007,07,11,06,05,20.20
2007,07,11,06,06,20.20
2007,07,11,06,07,20.20
2007,07,11,06,08,20.20
2007,07,11,06,09,20.20
2007,07,11,06,10,20.20
2007,07,11,06,11,20.20
2007,07,11,06,12,20.20
2007,07,11,06,13,20.20
2007,07,11,06,14,20.20
2007,07,11,06,15,20.20
2007,07,11,06,16,20.20
2007,07,11,06,17,20.30
2007,07,11,06,18,20.30
2007,07,11,06,19,20.30
2007,07,11,06,20,20.30
2007,07,11,06,21,20.30
2007,07,11,06,22,20.30
2007,07,11,06,23,20.30
2007,07,11,06,24,20.30
2007,07,11,06,25,20.30
2007,07,11,06,26,20.30
2007,07,11,06,27,20.30
2007,07,11,06,28,20.30
2007,07,11,06,29,20.30
2007,07,11,06,30,20.30
2007,07,11,06,31,20.30
2007,07,11,06,32,20.40
2007,07,11,06,33,20.40
2007,07,11,06,34,20.40
2007,07,11,06,35,20.40
2007,07,11,06,36,20.40
2007,07,11,06,37,20.40
2007,07,11,06,38,20.50
2007,07,11,06,39,20.50
2007,07,11,06,40,20.50
2007,07,11,06,41,20.50
2007,07,11,06,42,20.50
2007,07,11,06,43,20.50
2007,07,11,06,44,20.50
2007,07,11,06,45,20.50
2007,07,11,06,46,20.50
2007,07,11,06,47,20.60
2007,07,11,06,48,20.60
2007,07,11,06,49,20.60
2007,07,11,06,50,20.60
2007,07,11,06,51,20.60
2007,07,11,06,52,20.60
2007,07,11,06,53,20.60
2007,07,11,06,54,20.60
2007,07,11,06,55,20.60
2007,07,11,06,56,20.60
2007,07,11,06,57,20.60
2007,07,11,06,58,20.70
2007,07,11,06,59,20.70
2007,07,11,07,00,20.70
2007,07,11,07,01,20.70
2007,07,11,07,02,20.70
2007,07,11,07,03,20.70
2007,07,11,07,04,20.70
2007,07,11,07,05,20.70
2007,07,11,07,06,20.70
2007,07,11,07,07,20.80
2007,07,11,07,08,20.80
2007,07,11,07,09,20.80
2007,07,11,07,10,20.90
2007,07,11,07,11,21.00
2007,07,11,07,12,21.10
2007,07,11,07,13,21.10
2007,07,11,07,14,21.20
2007,07,11,07,15,21.30
2007,07,11,07,16,21.30
2007,07,11,07,17,21.30
2007,07,11,07,18,21.30
2007,07,11,07,19,21.30
2007,07,11,07,20,21.40
2007,07,11,07,21,21.40
2007,07,11,07,22,21.40
2007,07,11,07,23,21.50
2007,07,11,07,24,21.60
2007,07,11,07,25,21.60
2007,07,11,07,26,21.60
2007,07,11,07,27,21.60
2007,07,11,07,28,21.60
2007,07,11,07,29,21.60
2007,07,11,07,30,21.60
2007,07,11,07,31,21.70
2007,07,11,07,32,21.70
2007,07,11,07,33,21.70
2007,07,11,07,34,21.70
2007,07,11,07,35,21.70
2007,07,11,07,36,21.80
2007,07,11,07,37,21.80
2007,07,11,07,38,21.80
2007,07,11,07,39,21.80
2007,07,11,07,40,21.90
2007,07,11,07,41,21.90
2007,07,11,07,42,22.00
2007,07,11,07,43,22.00
2007,07,11,07,44,22.10
2007,07,11,07,45,22.10
2007,07,11,07,46,22.20
2007,07,11,07,47,22.30
2007,07,11,07,48,22.40
2007,07,11,07,49,22.50
2007,07,11,07,50,22.60
2007,07,11,07,51,22.60
2007,07,11,07,52,22.70
2007,07,11,07,53,22.80
2007,07,11,07,54,22.80
2007,07,11,07,55,22.90
2007,07,11,07,56,23.00
2007,07,11,07,57,23.20
2007,07,11,07,58,23.30
2007,07,11,07,59,23.30
2007,07,11,08,00,23.50
2007,07,11,08,01,23.60
2007,07,11,08,02,23.70
2007,07,11,08,03,23.80
2007,07,11,08,04,23.90
2007,07,11,08,05,24.00
2007,07,11,08,06,24.10
2007,07,11,08,07,24.10
2007,07,11,08,08,24.20
2007,07,11,08,09,24.30
2007,07,11,08,10,24.40
2007,07,11,08,11,24.40
2007,07,11,08,12,24.50
2007,07,11,08,13,24.50
2007,07,11,08,14,24.50
2007,07,11,08,15,24.60
2007,07,11,08,16,24.60
2007,07,11,08,17,24.70
2007,07,11,08,18,24.70
2007,07,11,08,19,24.80
2007,07,11,08,20,24.80
2007,07,11,08,21,24.80
2007,07,11,08,22,25.00
2007,07,11,08,23,25.00
2007,07,11,08,24,25.10
2007,07,11,08,25,25.20
2007,07,11,08,26,25.20
2007,07,11,08,27,25.30
2007,07,11,08,28,25.40
2007,07,11,08,29,25.40
2007,07,11,08,30,25.50
2007,07,11,08,31,25.60
2007,07,11,08,32,25.70
2007,07,11,08,33,25.80
2007,07,11,08,34,25.90
2007,07,11,08,35,26.00
2007,07,11,08,36,26.00
2007,07,11,08,37,26.10
2007,07,11,08,38,26.10
2007,07,11,08,39,26.10
2007,07,11,08,40,26.20
2007,07,11,08,41,26.20
2007,07,11,08,42,26.20
2007,07,11,08,43,26.20
2007,07,11,08,44,26.10
2007,07,11,08,45,26.10
2007,07,11,08,46,26.10
2007,07,11,08,47,26.00
2007,07,11,08,48,26.00
2007,07,11,08,49,26.00
2007,07,11,08,50,26.00
2007,07,11,08,51,25.90
2007,07,11,08,52,25.90
2007,07,11,08,53,25.90
2007,07,11,08,54,25.90
2007,07,11,08,55,25.90
2007,07,11,08,56,26.00
2007,07,11,08,57,26.10
2007,07,11,08,58,26.20
2007,07,11,08,59,26.30
2007,07,11,09,00,26.50
2007,07,11,09,01,26.60
2007,07,11,09,02,26.70
2007,07,11,09,03,27.00
2007,07,11,09,04,27.10
2007,07,11,09,05,27.20
2007,07,11,09,06,27.30
2007,07,11,09,07,27.40
2007,07,11,09,08,27.50
2007,07,11,09,09,27.60
2007,07,11,09,10,27.60
2007,07,11,09,11,27.70
2007,07,11,09,12,27.80
2007,07,11,09,13,27.90
2007,07,11,09,14,27.90
2007,07,11,09,15,28.00
2007,07,11,09,16,28.10
2007,07,11,09,17,28.10
2007,07,11,09,18,28.10
2007,07,11,09,19,28.10
2007,07,11,09,20,28.10
2007,07,11,09,21,28.00
2007,07,11,09,22,27.90
2007,07,11,09,23,27.80
2007,07,11,09,24,27.80
2007,07,11,09,25,27.80
2007,07,11,09,26,27.80
2007,07,11,09,27,27.90
2007,07,11,09,28,27.90
2007,07,11,09,29,28.00
2007,07,11,09,30,28.10
2007,07,11,09,31,28.20
2007,07,11,09,32,28.20
2007,07,11,09,33,28.30
2007,07,11,09,34,28.30
2007,07,11,09,35,28.40
2007,07,11,09,36,28.50
2007,07,11,09,37,28.60
2007,07,11,09,38,28.50
2007,07,11,09,39,28.40
2007,07,11,09,40,28.40
2007,07,11,09,41,28.30
2007,07,11,09,42,28.30
2007,07,11,09,43,28.30
2007,07,11,09,44,28.40
2007,07,11,09,45,28.40
2007,07,11,09,46,28.50
2007,07,11,09,47,28.60
2007,07,11,09,48,28.60
2007,07,11,09,49,28.60
2007,07,11,09,50,28.60
2007,07,11,09,51,28.60
2007,07,11,09,52,28.60
2007,07,11,09,53,28.60
2007,07,11,09,54,28.80
2007,07,11,09,55,28.80
2007,07,11,09,56,28.80
2007,07,11,09,57,28.80
2007,07,11,09,58,28.80
2007,07,11,09,59,28.90
2007,07,11,10,00,28.90
2007,07,11,10,01,28.90
2007,07,11,10,02,28.90
2007,07,11,10,03,28.90
2007,07,11,10,04,28.90
2007,07,11,10,05,28.90
2007,07,11,10,06,28.90
2007,07,11,10,07,28.90
2007,07,11,10,08,28.90
2007,07,11,10,09,28.90
2007,07,11,10,10,28.90
2007,07,11,10,11,28.90
2007,07,11,10,12,28.90
2007,07,11,10,13,29.00
2007,07,11,10,14,29.10
2007,07,11,10,15,29.10
2007,07,11,10,16,29.10
2007,07,11,10,17,29.10
2007,07,11,10,18,29.10
2007,07,11,10,19,29.10
2007,07,11,10,20,29.10
2007,07,11,10,21,29.10
2007,07,11,10,22,29.10
2007,07,11,10,23,29.10
2007,07,11,10,24,29.10
2007,07,11,10,25,29.20
2007,07,11,10,26,29.40
2007,07,11,10,27,29.40
2007,07,11,10,28,29.50
2007,07,11,10,29,29.40
2007,07,11,10,30,29.40
2007,07,11,10,31,29.30
2007,07,11,10,32,29.30
2007,07,11,10,33,29.40
2007,07,11,10,34,29.40
2007,07,11,10,35,29.40
2007,07,11,10,36,29.40
2007,07,11,10,37,29.40
2007,07,11,10,38,29.40
2007,07,11,10,39,29.40
2007,07,11,10,40,29.50
2007,07,11,10,41,29.60
2007,07,11,10,42,29.70
2007,07,11,10,43,29.70
2007,07,11,10,44,29.70
2007,07,11,10,45,29.60
2007,07,11,10,46,29.60
2007,07,11,10,47,29.50
2007,07,11,10,48,29.60
2007,07,11,10,49,29.70
2007,07,11,10,50,29.60
2007,07,11,10,51,29.60
2007,07,11,10,52,29.70
2007,07,11,10,53,29.70
2007,07,11,10,54,29.70
2007,07,11,10,55,29.70
2007,07,11,10,56,29.70
2007,07,11,10,57,29.70
2007,07,11,10,58,29.60
2007,07,11,10,59,29.60
2007,07,11,11,00,29.60
2007,07,11,11,01,29.60
2007,07,11,11,02,29.60
2007,07,11,11,03,29.60
2007,07,11,11,04,29.50
2007,07,11,11,05,29.50
2007,07,11,11,06,29.50
2007,07,11,11,07,29.50
2007,07,11,11,08,29.60
2007,07,11,11,09,29.60
2007,07,11,11,10,29.60
2007,07,11,11,11,29.70
2007,07,11,11,12,29.70
2007,07,11,11,13,29.80
2007,07,11,11,14,29.90
2007,07,11,11,15,30.00
2007,07,11,11,16,30.10
2007,07,11,11,17,30.10
2007,07,11,11,18,30.20
2007,07,11,11,19,30.20
2007,07,11,11,20,30.20
2007,07,11,11,21,30.30
2007,07,11,11,22,30.40
2007,07,11,11,23,30.40
2007,07,11,11,24,30.40
2007,07,11,11,25,30.50
2007,07,11,11,26,30.60
2007,07,11,11,27,30.70
2007,07,11,11,28,30.70
2007,07,11,11,29,30.80
2007,07,11,11,30,30.80
2007,07,11,11,31,30.80
2007,07,11,11,32,30.80
2007,07,11,11,33,30.80
2007,07,11,11,34,30.80
2007,07,11,11,35,30.90
2007,07,11,11,36,30.90
2007,07,11,11,37,31.00
2007,07,11,11,38,31.00
2007,07,11,11,39,31.10
2007,07,11,11,40,31.10
2007,07,11,11,41,31.20
2007,07,11,11,42,31.20
2007,07,11,11,43,31.20
2007,07,11,11,44,31.20
2007,07,11,11,45,31.20
2007,07,11,11,46,31.20
2007,07,11,11,47,31.10
2007,07,11,11,48,31.10
2007,07,11,11,49,31.10
2007,07,11,11,50,31.10
2007,07,11,11,51,31.10
2007,07,11,11,52,31.10
2007,07,11,11,53,31.20
2007,07,11,11,54,31.30
2007,07,11,11,55,31.30
2007,07,11,11,56,31.40
2007,07,11,11,57,31.60
2007,07,11,11,58,31.60
2007,07,11,11,59,31.80
2007,07,11,12,00,31.80
2007,07,11,12,01,31.80
2007,07,11,12,02,31.80
2007,07,11,12,03,31.80
2007,07,11,12,04,31.80
2007,07,11,12,05,31.80
2007,07,11,12,06,31.70
2007,07,11,12,07,31.60
2007,07,11,12,08,31.50
2007,07,11,12,09,31.40
2007,07,11,12,10,31.40
2007,07,11,12,11,31.30
2007,07,11,12,12,31.30
2007,07,11,12,13,31.30
2007,07,11,12,14,31.40
2007,07,11,12,15,31.40
2007,07,11,12,16,31.40
2007,07,11,12,17,31.60
2007,07,11,12,18,31.60
2007,07,11,12,19,31.60
2007,07,11,12,20,31.60
2007,07,11,12,21,31.60
2007,07,11,12,22,31.70
2007,07,11,12,23,31.90
2007,07,11,12,24,32.10
2007,07,11,12,25,32.30
2007,07,11,12,26,32.30
2007,07,11,12,27,32.30
2007,07,11,12,28,32.20
2007,07,11,12,29,32.10
2007,07,11,12,30,32.00
2007,07,11,12,31,32.00
2007,07,11,12,32,32.10
2007,07,11,12,33,32.20
2007,07,11,12,34,32.30
2007,07,11,12,35,32.40
2007,07,11,12,36,32.50
2007,07,11,12,37,32.50
2007,07,11,12,38,32.60
2007,07,11,12,39,32.80
2007,07,11,12,40,32.80
2007,07,11,12,41,32.90
2007,07,11,12,42,32.90
2007,07,11,12,43,32.80
2007,07,11,12,44,32.70
2007,07,11,12,45,32.50
2007,07,11,12,46,32.40
2007,07,11,12,47,32.30
2007,07,11,12,48,32.30
2007,07,11,12,49,32.30
2007,07,11,12,50,32.30
2007,07,11,12,51,32.20
2007,07,11,12,52,32.20
2007,07,11,12,53,32.20
2007,07,11,12,54,32.20
2007,07,11,12,55,32.30
2007,07,11,12,56,32.40
2007,07,11,12,57,32.40
2007,07,11,12,58,32.50
2007,07,11,12,59,32.40
2007,07,11,13,00,32.30
2007,07,11,13,01,32.30
2007,07,11,13,02,32.10
2007,07,11,13,03,31.80
2007,07,11,13,04,31.80
2007,07,11,13,05,31.80
2007,07,11,13,06,31.90
2007,07,11,13,07,32.00
2007,07,11,13,08,32.20
2007,07,11,13,09,32.50
2007,07,11,13,10,32.70
2007,07,11,13,11,32.80
2007,07,11,13,12,32.90
2007,07,11,13,13,32.80
2007,07,11,13,14,32.80
2007,07,11,13,15,32.70
2007,07,11,13,16,32.70
2007,07,11,13,17,32.80
2007,07,11,13,18,32.80
2007,07,11,13,19,32.80
2007,07,11,13,20,32.80
2007,07,11,13,21,32.90
2007,07,11,13,22,32.90
2007,07,11,13,23,32.90
2007,07,11,13,24,32.90
2007,07,11,13,25,32.90
2007,07,11,13,26,32.90
2007,07,11,13,27,32.90
2007,07,11,13,28,32.80
2007,07,11,13,29,32.80
2007,07,11,13,30,32.90
2007,07,11,13,31,33.00
2007,07,11,13,32,33.10
2007,07,11,13,33,33.10
2007,07,11,13,34,33.20
2007,07,11,13,35,33.30
2007,07,11,13,36,33.40
2007,07,11,13,37,33.40
2007,07,11,13,38,33.40
2007,07,11,13,39,33.40
2007,07,11,13,40,33.40
2007,07,11,13,41,33.20
2007,07,11,13,42,33.20
2007,07,11,13,43,33.20
2007,07,11,13,44,33.10
2007,07,11,13,45,33.00
2007,07,11,13,46,32.90
2007,07,11,13,47,32.90
2007,07,11,13,48,32.90
2007,07,11,13,49,33.00
2007,07,11,13,50,33.10
2007,07,11,13,51,33.30
2007,07,11,13,52,33.40
2007,07,11,13,53,33.50
2007,07,11,13,54,33.40
2007,07,11,13,55,33.40
2007,07,11,13,56,33.40
2007,07,11,13,57,33.40
2007,07,11,13,58,33.40
2007,07,11,13,59,33.30
2007,07,11,14,00,33.10
2007,07,11,14,01,33.00
2007,07,11,14,02,33.10
2007,07,11,14,03,33.10
2007,07,11,14,04,33.20
2007,07,11,14,05,33.20
2007,07,11,14,06,33.40
2007,07,11,14,07,33.60
2007,07,11,14,08,33.60
2007,07,11,14,09,33.60
2007,07,11,14,10,33.60
2007,07,11,14,11,33.70
2007,07,11,14,12,34.10
2007,07,11,14,13,34.20
2007,07,11,14,14,34.30
2007,07,11,14,15,34.30
2007,07,11,14,16,34.40
2007,07,11,14,17,34.40
2007,07,11,14,18,34.40
2007,07,11,14,19,34.40
2007,07,11,14,20,34.40
2007,07,11,14,21,34.60
2007,07,11,14,22,34.70
2007,07,11,14,23,34.80
2007,07,11,14,24,34.90
2007,07,11,14,25,35.00
2007,07,11,14,26,35.20
2007,07,11,14,27,35.20
2007,07,11,14,28,35.30
2007,07,11,14,29,35.30
2007,07,11,14,30,35.30
2007,07,11,14,31,35.20
2007,07,11,14,32,35.10
2007,07,11,14,33,35.10
2007,07,11,14,34,35.10
2007,07,11,14,35,35.10
2007,07,11,14,36,35.10
2007,07,11,14,37,35.20
2007,07,11,14,38,35.20
2007,07,11,14,39,35.20
2007,07,11,14,40,35.20
2007,07,11,14,41,35.20
2007,07,11,14,42,35.10
2007,07,11,14,43,35.10
2007,07,11,14,44,35.10
2007,07,11,14,45,35.00
2007,07,11,14,46,34.90
2007,07,11,14,47,34.80
2007,07,11,14,48,34.80
2007,07,11,14,49,34.80
2007,07,11,14,50,34.80
2007,07,11,14,51,34.80
2007,07,11,14,52,34.90
2007,07,11,14,53,35.00
2007,07,11,14,54,35.10
2007,07,11,14,55,35.20
2007,07,11,14,56,35.30
2007,07,11,14,57,35.40
2007,07,11,14,58,35.30
2007,07,11,14,59,35.30
2007,07,11,15,00,35.30
2007,07,11,15,01,35.20
2007,07,11,15,02,35.20
2007,07,11,15,03,35.30
2007,07,11,15,04,35.30
2007,07,11,15,05,35.30
2007,07,11,15,06,35.50
2007,07,11,15,07,35.60
2007,07,11,15,08,35.60
2007,07,11,15,09,35.60
2007,07,11,15,10,35.60
2007,07,11,15,11,35.60
2007,07,11,15,12,35.60
2007,07,11,15,13,35.60
2007,07,11,15,14,35.60
2007,07,11,15,15,35.60
2007,07,11,15,16,35.60
2007,07,11,15,17,35.50
2007,07,11,15,18,35.30
2007,07,11,15,19,35.30
2007,07,11,15,20,35.30
2007,07,11,15,21,35.30
2007,07,11,15,22,35.30
2007,07,11,15,23,35.30
2007,07,11,15,24,35.30
2007,07,11,15,25,35.30
2007,07,11,15,26,35.30
2007,07,11,15,27,35.30
2007,07,11,15,28,35.20
2007,07,11,15,29,35.20
2007,07,11,15,30,35.10
2007,07,11,15,31,35.10
2007,07,11,15,32,35.10
2007,07,11,15,33,35.10
2007,07,11,15,34,35.10
2007,07,11,15,35,35.10
2007,07,11,15,36,35.20
2007,07,11,15,37,35.20
2007,07,11,15,38,35.30
2007,07,11,15,39,35.30
2007,07,11,15,40,35.30
2007,07,11,15,41,35.20
2007,07,11,15,42,35.20
2007,07,11,15,43,35.30
2007,07,11,15,44,35.30
2007,07,11,15,45,35.30
2007,07,11,15,46,35.30
2007,07,11,15,47,35.30
2007,07,11,15,48,35.30
2007,07,11,15,49,35.30
2007,07,11,15,50,35.20
2007,07,11,15,51,35.30
2007,07,11,15,52,35.30
2007,07,11,15,53,35.30
2007,07,11,15,54,35.30
2007,07,11,15,55,35.30
2007,07,11,15,56,35.30
2007,07,11,15,57,35.30
2007,07,11,15,58,35.30
2007,07,11,15,59,35.30
2007,07,11,16,00,35.30
2007,07,11,16,01,35.30
2007,07,11,16,02,35.30
2007,07,11,16,03,35.20
2007,07,11,16,04,35.30
2007,07,11,16,05,35.30
2007,07,11,16,06,35.30
2007,07,11,16,07,35.50
2007,07,11,16,08,35.50
2007,07,11,16,09,35.50
2007,07,11,16,10,35.50
2007,07,11,16,11,35.50
2007,07,11,16,12,35.60
2007,07,11,16,13,35.70
2007,07,11,16,14,35.80
2007,07,11,16,15,35.90
2007,07,11,16,16,36.00
2007,07,11,16,17,36.00
2007,07,11,16,18,36.00
2007,07,11,16,19,36.00
2007,07,11,16,20,36.00
2007,07,11,16,21,36.00
2007,07,11,16,22,36.00
2007,07,11,16,23,36.00
2007,07,11,16,24,36.00
2007,07,11,16,25,36.00
2007,07,11,16,26,35.90
2007,07,11,16,27,35.70
2007,07,11,16,28,35.70
2007,07,11,16,29,35.70
2007,07,11,16,30,35.80
2007,07,11,16,31,35.90
2007,07,11,16,32,35.90
2007,07,11,16,33,35.90
2007,07,11,16,34,35.90
2007,07,11,16,35,35.70
2007,07,11,16,36,35.70
2007,07,11,16,37,35.70
2007,07,11,16,38,35.70
2007,07,11,16,39,35.60
2007,07,11,16,40,35.60
2007,07,11,16,41,35.50
2007,07,11,16,42,35.30
2007,07,11,16,43,35.20
2007,07,11,16,44,35.10
2007,07,11,16,45,35.00
2007,07,11,16,46,34.90
2007,07,11,16,47,34.80
2007,07,11,16,48,34.80
2007,07,11,16,49,34.70
2007,07,11,16,50,34.70
2007,07,11,16,51,34.70
2007,07,11,16,52,34.70
2007,07,11,16,53,34.70
2007,07,11,16,54,34.70
2007,07,11,16,55,34.70
2007,07,11,16,56,34.60
2007,07,11,16,57,34.60
2007,07,11,16,58,34.50
2007,07,11,16,59,34.40
2007,07,11,17,00,34.50
2007,07,11,17,01,34.60
2007,07,11,17,02,34.60
2007,07,11,17,03,34.60
2007,07,11,17,04,34.70
2007,07,11,17,05,34.70
2007,07,11,17,06,34.80
2007,07,11,17,07,34.80
2007,07,11,17,08,34.80
2007,07,11,17,09,34.90
2007,07,11,17,10,35.00
2007,07,11,17,11,35.10
2007,07,11,17,12,35.10
2007,07,11,17,13,35.20
2007,07,11,17,14,35.30
2007,07,11,17,15,35.40
2007,07,11,17,16,35.50
2007,07,11,17,17,35.50
2007,07,11,17,18,35.60
2007,07,11,17,19,35.60
2007,07,11,17,20,35.60
2007,07,11,17,21,35.70
2007,07,11,17,22,35.70
2007,07,11,17,23,35.70
2007,07,11,17,24,35.70
2007,07,11,17,25,35.70
2007,07,11,17,26,35.70
2007,07,11,17,27,35.70
2007,07,11,17,28,35.70
2007,07,11,17,29,35.70
2007,07,11,17,30,35.70
2007,07,11,17,31,35.70
2007,07,11,17,32,35.50
2007,07,11,17,33,35.40
2007,07,11,17,34,35.30
2007,07,11,17,35,35.30
2007,07,11,17,36,35.40
2007,07,11,17,37,35.30
2007,07,11,17,38,35.30
2007,07,11,17,39,35.40
2007,07,11,17,40,35.50
2007,07,11,17,41,35.50
2007,07,11,17,42,35.50
2007,07,11,17,43,35.60
2007,07,11,17,44,35.60
2007,07,11,17,45,35.80
2007,07,11,17,46,35.90
2007,07,11,17,47,36.00
2007,07,11,17,48,36.00
2007,07,11,17,49,36.20
2007,07,11,17,50,36.20
2007,07,11,17,51,36.20
2007,07,11,17,52,36.20
2007,07,11,17,53,36.10
2007,07,11,17,54,36.00
2007,07,11,17,55,36.00
2007,07,11,17,56,36.00
2007,07,11,17,57,36.00
2007,07,11,17,58,36.00
2007,07,11,17,59,36.00
2007,07,11,18,00,36.00
2007,07,11,18,01,36.00
2007,07,11,18,02,36.00
2007,07,11,18,03,35.90
2007,07,11,18,04,35.90
2007,07,11,18,05,35.90
2007,07,11,18,06,35.90
2007,07,11,18,07,35.80